This is the latest recevied weather packets stored in our database for station/object HP3ICC-22. If no packets are shown the sender has not sent any weather packets the latest 1 day(s).
| Time | Temp. | Humidity | Pressure | Rain* | Wind** | Luminosity | Snow |
|---|---|---|---|---|---|---|---|
| 1778001774 | 13.89° C | 73% | 1013 hPa | 0.25 mm | 1.34 m/s, 70° | - | - |
| 1778000634 | 13.89° C | 75% | 1013 hPa | 0.25 mm | 1.34 m/s, 70° | - | - |
| 1778000574 | 13.89° C | 75% | 1013 hPa | 0.25 mm | 1.34 m/s, 70° | - | - |
| 1777999434 | 13.33° C | 77% | 1014 hPa | 0.25 mm | 1.34 m/s, 70° | - | - |
| 1777999374 | 13.33° C | 77% | 1014 hPa | 0.25 mm | 1.34 m/s, 70° | - | - |
| 1777998233 | 13.89° C | 75% | 1013 hPa | 0 mm | 0.89 m/s, 66° | - | - |
| 1777998173 | 13.89° C | 75% | 1013 hPa | 0 mm | 0.89 m/s, 66° | - | - |
| 1777997032 | 13.89° C | 76% | 1013 hPa | 0 mm | 0.89 m/s, 66° | - | - |
| 1777996972 | 13.89° C | 76% | 1013 hPa | 0 mm | 0.89 m/s, 66° | - | - |
| 1777995832 | 13.33° C | 76% | 1014 hPa | 0 mm | 0.89 m/s, 66° | - | - |
| 1777995772 | 13.33° C | 76% | 1014 hPa | 0 mm | 0.89 m/s, 66° | - | - |
| 1777994631 | 14.44° C | 77% | 1013 hPa | 0 mm | 0.89 m/s, 59° | - | - |
| 1777994571 | 14.44° C | 77% | 1013 hPa | 0 mm | 0.89 m/s, 59° | - | - |
| 1777993431 | 14.44° C | 77% | 1013 hPa | 0 mm | 0.89 m/s, 59° | - | - |
| 1777993371 | 14.44° C | 77% | 1013 hPa | 0 mm | 0.89 m/s, 59° | - | - |
| 1777992231 | 13.89° C | 76% | 1014 hPa | 0 mm | 0.89 m/s, 59° | - | - |
| 1777992170 | 13.89° C | 76% | 1014 hPa | 0 mm | 0.89 m/s, 59° | - | - |
| 1777991030 | 13.89° C | 82% | 1013 hPa | 0 mm | 0.89 m/s, 42° | - | - |
| 1777990970 | 13.89° C | 82% | 1013 hPa | 0 mm | 0.89 m/s, 42° | - | - |
| 1777989829 | 13.33° C | 85% | 1013 hPa | 0 mm | 0.89 m/s, 42° | - | - |
| 1777989769 | 13.33° C | 85% | 1013 hPa | 0 mm | 0.89 m/s, 42° | - | - |
| 1777988629 | 11.11° C | 89% | 1014 hPa | 0 mm | 0.89 m/s, 42° | - | - |
| 1777988569 | 11.11° C | 89% | 1014 hPa | 0 mm | 0.89 m/s, 42° | - | - |
| 1777987429 | 11.67° C | 88% | 1012 hPa | 0 mm | 1.34 m/s, 15° | - | - |
| 1777987369 | 11.67° C | 88% | 1012 hPa | 0 mm | 1.34 m/s, 15° | - | - |
* Rain latest hour (hover to see other rain measurements)
** Current wind speed in m/s (hover to see current wind gust speed)